| time (UTC) | temp F | wind direction | speed MPH | gust MPH | rain 1hr in | rain 24hr in | rain mn in | humidity % | barometer mb |
| 20260507021002 | 48 | 133 | 1.0 | 2.0 | 0.00 | 0.42 | 0.42 | 86 | 1011.6 |
| 20260507020505 | 48 | 108 | 0.0 | 2.0 | 0.00 | 0.42 | 0.42 | 86 | 1011.7 |
| 20260507020014 | 48 | 113 | 0.0 | 2.0 | 0.00 | 0.42 | 0.42 | 86 | 1011.8 |
| 20260507015506 | 48 | 153 | 0.0 | 2.0 | 0.00 | 0.42 | 0.42 | 86 | 1012.0 |
| 20260507015005 | 48 | 184 | 0.0 | 2.0 | 0.00 | 0.42 | 0.42 | 86 | 1012.0 |
| 20260507014522 | 48 | 175 | 0.0 | 5.0 | 0.00 | 0.42 | 0.42 | 86 | 1012.1 |
| 20260507014003 | 48 | 132 | 1.0 | 5.0 | 0.00 | 0.42 | 0.42 | 86 | 1011.9 |
| 20260507013504 | 48 | 94 | 1.0 | 4.0 | 0.00 | 0.42 | 0.42 | 86 | 1011.7 |
| 20260507013020 | 49 | 80 | 2.0 | 4.0 | 0.00 | 0.42 | 0.42 | 86 | 1011.7 |
| 20260507012507 | 49 | 155 | 1.0 | 7.0 | 0.00 | 0.42 | 0.42 | 86 | 1011.8 |
| 20260507012002 | 49 | 117 | 2.0 | 7.0 | 0.00 | 0.42 | 0.42 | 86 | 1012.0 |
| 20260507011509 | 49 | 95 | 0.0 | 4.0 | 0.00 | 0.42 | 0.42 | 86 | 1011.9 |
| 20260507011002 | 49 | 331 | 1.0 | 7.0 | 0.00 | 0.42 | 0.42 | 86 | 1011.8 |
| 20260507010503 | 49 | 103 | 2.0 | 7.0 | 0.00 | 0.42 | 0.42 | 86 | 1011.6 |
| 20260507010006 | 49 | 92 | 2.0 | 6.0 | 0.00 | 0.42 | 0.42 | 86 | 1011.5 |
| 20260507005504 | 49 | 89 | 1.0 | 6.0 | 0.00 | 0.42 | 0.42 | 87 | 1011.5 |
| 20260507005005 | 49 | 98 | 2.0 | 6.0 | 0.00 | 0.42 | 0.42 | 87 | 1011.4 |
| 20260507004528 | 50 | 103 | 0.0 | 2.0 | 0.00 | 0.42 | 0.42 | 88 | 1011.2 |
| 20260507004004 | 50 | 70 | 0.0 | 2.0 | 0.00 | 0.42 | 0.42 | 87 | 1011.1 |
| 20260507003507 | 50 | 10 | 0.0 | 2.0 | 0.00 | 0.42 | 0.42 | 87 | 1011.1 |
| 20260507003018 | 50 | 55 | 0.0 | 3.0 | 0.00 | 0.42 | 0.42 | 87 | 1011.0 |
| 20260507002506 | 50 | 79 | 1.0 | 3.0 | 0.00 | 0.42 | 0.42 | 86 | 1010.9 |
| 20260507002007 | 50 | 87 | 0.0 | 6.0 | 0.00 | 0.42 | 0.42 | 86 | 1010.7 |
| 20260507001524 | 50 | 96 | 0.0 | 7.0 | 0.00 | 0.42 | 0.42 | 86 | 1010.7 |
| 20260507001005 | 50 | 122 | 1.0 | 7.0 | 0.00 | 0.42 | 0.42 | 86 | 1010.6 |
| 20260507000502 | 50 | 28 | 1.0 | 4.0 | 0.00 | 0.42 | 0.42 | 85 | 1010.5 |
| 20260507000005 | 51 | 69 | 1.0 | 5.0 | 0.00 | 0.42 | 0.42 | 85 | 1010.4 |
| 20260506235506 | 51 | 295 | 0.0 | 8.0 | 0.00 | 0.42 | 0.42 | 85 | 1010.3 |
| 20260506235002 | 51 | 117 | 1.0 | 8.0 | 0.00 | 0.42 | 0.42 | 85 | 1010.2 |
| 20260506234508 | 52 | 300 | 1.0 | 8.0 | 0.00 | 0.42 | 0.42 | 86 | 1010.1 |
| 20260506234006 | 52 | 96 | 4.0 | 7.0 | 0.00 | 0.42 | 0.42 | 86 | 1010.0 |
| 20260506233506 | 53 | 71 | 2.0 | 6.0 | 0.00 | 0.42 | 0.42 | 86 | 1010.0 |
| 20260506233016 | 53 | 66 | 1.0 | 6.0 | 0.00 | 0.42 | 0.42 | 86 | 1009.9 |
| 20260506232506 | 53 | 89 | 3.0 | 6.0 | 0.00 | 0.42 | 0.42 | 85 | 1009.7 |
| 20260506232006 | 54 | 109 | 1.0 | 4.0 | 0.00 | 0.42 | 0.42 | 84 | 1009.7 |
| 20260506231531 | 54 | 150 | 0.0 | 4.0 | 0.00 | 0.42 | 0.42 | 84 | 1009.6 |
| 20260506231006 | 55 | 111 | 1.0 | 3.0 | 0.00 | 0.42 | 0.42 | 84 | 1009.6 |
| 20260506230504 | 56 | 346 | 1.0 | 3.0 | 0.00 | 0.42 | 0.42 | 85 | 1009.6 |
| 20260506230020 | 56 | 134 | 1.0 | 3.0 | 0.00 | 0.42 | 0.42 | 85 | 1009.5 |
| 20260506225503 | 57 | 136 | 0.0 | 4.0 | 0.00 | 0.42 | 0.42 | 85 | 1009.3 |
| 20260506225003 | 57 | 221 | 1.0 | 8.0 | 0.00 | 0.42 | 0.42 | 85 | 1009.2 |
| 20260506224508 | 58 | 229 | 3.0 | 9.0 | 0.00 | 0.42 | 0.42 | 84 | 1009.0 |
| 20260506224002 | 59 | 248 | 4.0 | 10.0 | 0.00 | 0.42 | 0.42 | 85 | 1008.6 |
| 20260506223502 | 60 | 233 | 2.0 | 10.0 | 0.00 | 0.42 | 0.42 | 88 | 1008.2 |
| 20260506223012 | 60 | 259 | 1.0 | 2.0 | 0.00 | 0.42 | 0.42 | 88 | 1008.0 |
| 20260506222507 | 60 | 260 | 1.0 | 4.0 | 0.00 | 0.42 | 0.42 | 88 | 1008.0 |
| 20260506222008 | 60 | 225 | 2.0 | 4.0 | 0.00 | 0.42 | 0.42 | 88 | 1007.9 |
| 20260506221519 | 61 | 259 | 0.0 | 3.0 | 0.00 | 0.42 | 0.42 | 89 | 1007.9 |
| 20260506221012 | 61 | 248 | 1.0 | 3.0 | 0.00 | 0.42 | 0.42 | 89 | 1007.8 |
| 20260506220509 | 61 | 261 | 1.0 | 3.0 | 0.00 | 0.42 | 0.42 | 88 | 1007.8 |
| 20260506220024 | 61 | 261 | 1.0 | 3.0 | 0.00 | 0.42 | 0.42 | 88 | 1007.7 |
| 20260506215509 | 61 | 229 | 0.0 | 2.0 | 0.00 | 0.42 | 0.42 | 88 | 1007.6 |
| 20260506215010 | 61 | 260 | 0.0 | 2.0 | 0.00 | 0.42 | 0.42 | 87 | 1007.6 |
| 20260506214519 | 61 | 260 | 0.0 | 2.0 | 0.00 | 0.42 | 0.42 | 87 | 1007.5 |
| 20260506214005 | 61 | 268 | 0.0 | 2.0 | 0.00 | 0.42 | 0.42 | 86 | 1007.4 |
| 20260506213502 | 61 | 249 | 1.0 | 3.0 | 0.00 | 0.42 | 0.42 | 86 | 1007.4 |
| 20260506213012 | 62 | 275 | 0.0 | 5.0 | 0.00 | 0.42 | 0.42 | 86 | 1007.3 |
| 20260506212503 | 62 | 80 | 1.0 | 5.0 | 0.00 | 0.42 | 0.42 | 85 | 1007.3 |
| 20260506212007 | 62 | 242 | 2.0 | 5.0 | 0.00 | 0.42 | 0.42 | 85 | 1007.2 |
| 20260506211516 | 62 | 252 | 3.0 | 6.0 | 0.00 | 0.42 | 0.42 | 85 | 1007.1 |
| 20260506211008 | 62 | 235 | 2.0 | 6.0 | 0.00 | 0.42 | 0.42 | 85 | 1006.9 |
| 20260506210507 | 62 | 254 | 2.0 | 8.0 | 0.00 | 0.42 | 0.42 | 85 | 1006.8 |
| 20260506210025 | 62 | 243 | 4.0 | 8.0 | 0.00 | 0.42 | 0.42 | 85 | 1006.8 |
| 20260506205509 | 62 | 247 | 3.0 | 4.0 | 0.00 | 0.42 | 0.42 | 87 | 1006.8 |
| 20260506205005 | 62 | 258 | 2.0 | 7.0 | 0.00 | 0.42 | 0.42 | 86 | 1006.8 |
| 20260506204524 | 62 | 272 | 3.0 | 6.0 | 0.00 | 0.42 | 0.42 | 86 | 1006.9 |
| 20260506204005 | 62 | 251 | 2.0 | 6.0 | 0.00 | 0.42 | 0.42 | 86 | 1006.9 |
| 20260506203511 | 61 | 250 | 2.0 | 9.0 | 0.00 | 0.42 | 0.42 | 87 | 1006.9 |
| 20260506203014 | 61 | 235 | 4.0 | 9.0 | 0.00 | 0.42 | 0.42 | 86 | 1006.7 |
| 20260506202503 | 61 | 234 | 3.0 | 7.0 | 0.00 | 0.42 | 0.42 | 87 | 1006.7 |
| 20260506202006 | 61 | 237 | 2.0 | 10.0 | 0.00 | 0.42 | 0.42 | 87 | 1006.8 |
| 20260506201529 | 61 | 268 | 4.0 | 10.0 | 0.00 | 0.42 | 0.42 | 87 | 1006.9 |
| 20260506201007 | 61 | 245 | 3.0 | 7.0 | 0.00 | 0.42 | 0.42 | 88 | 1006.9 |
| 20260506200506 | 61 | 246 | 3.0 | 5.0 | 0.00 | 0.42 | 0.42 | 89 | 1006.9 |
| 20260506200021 | 61 | 205 | 1.0 | 4.0 | 0.00 | 0.42 | 0.42 | 89 | 1007.0 |
| 20260506195507 | 60 | 242 | 3.0 | 6.0 | 0.00 | 0.42 | 0.42 | 89 | 1006.9 |
| 20260506195008 | 60 | 248 | 3.0 | 6.0 | 0.00 | 0.42 | 0.42 | 90 | 1006.9 |
| 20260506194528 | 60 | 242 | 2.0 | 5.0 | 0.00 | 0.42 | 0.42 | 90 | 1007.0 |
| 20260506194007 | 60 | 229 | 3.0 | 5.0 | 0.00 | 0.42 | 0.42 | 90 | 1007.0 |
| 20260506193509 | 60 | 246 | 3.0 | 5.0 | 0.00 | 0.42 | 0.42 | 90 | 1007.1 |
| 20260506193024 | 60 | 245 | 3.0 | 8.0 | 0.00 | 0.42 | 0.42 | 90 | 1007.1 |
| 20260506192506 | 60 | 250 | 3.0 | 8.0 | 0.00 | 0.42 | 0.42 | 90 | 1007.3 |
| 20260506192011 | 60 | 243 | 3.0 | 7.0 | 0.00 | 0.42 | 0.42 | 90 | 1007.3 |
| 20260506191511 | 60 | 260 | 3.0 | 7.0 | 0.00 | 0.42 | 0.42 | 90 | 1007.3 |
| 20260506191003 | 60 | 246 | 4.0 | 7.0 | 0.00 | 0.42 | 0.42 | 91 | 1007.3 |
| 20260506190507 | 60 | 247 | 4.0 | 9.0 | 0.00 | 0.42 | 0.42 | 91 | 1007.3 |
| 20260506190019 | 60 | 234 | 3.0 | 9.0 | 0.00 | 0.42 | 0.42 | 91 | 1007.3 |
| 20260506185507 | 60 | 247 | 3.0 | 8.0 | 0.00 | 0.42 | 0.42 | 91 | 1007.3 |
| 20260506185009 | 60 | 254 | 4.0 | 8.0 | 0.00 | 0.42 | 0.42 | 91 | 1007.4 |
| 20260506184520 | 60 | 223 | 3.0 | 8.0 | 0.00 | 0.42 | 0.42 | 92 | 1007.4 |
| 20260506184011 | 60 | 248 | 3.0 | 7.0 | 0.00 | 0.42 | 0.42 | 92 | 1007.3 |
| 20260506183508 | 60 | 225 | 3.0 | 9.0 | 0.01 | 0.42 | 0.42 | 92 | 1007.3 |
| 20260506183031 | 60 | 232 | 5.0 | 9.0 | 0.01 | 0.42 | 0.42 | 92 | 1007.3 |
| 20260506182509 | 59 | 250 | 5.0 | 9.0 | 0.01 | 0.42 | 0.42 | 92 | 1007.4 |
| 20260506182010 | 59 | 223 | 5.0 | 8.0 | 0.02 | 0.42 | 0.42 | 92 | 1007.6 |
| 20260506181525 | 59 | 244 | 5.0 | 10.0 | 0.02 | 0.42 | 0.42 | 92 | 1007.6 |
| 20260506181007 | 59 | 249 | 4.0 | 10.0 | 0.03 | 0.42 | 0.42 | 92 | 1007.6 |
| 20260506180504 | 59 | 260 | 5.0 | 9.0 | 0.04 | 0.42 | 0.42 | 92 | 1007.6 |
| 20260506180016 | 59 | 237 | 5.0 | 9.0 | 0.05 | 0.42 | 0.42 | 92 | 1007.6 |
| 20260506175504 | 59 | 244 | 5.0 | 9.0 | 0.05 | 0.42 | 0.42 | 92 | 1007.7 |
| 20260506175006 | 59 | 257 | 4.0 | 10.0 | 0.05 | 0.42 | 0.42 | 92 | 1007.7 |
| 20260506174520 | 58 | 242 | 6.0 | 9.0 | 0.05 | 0.42 | 0.42 | 92 | 1007.6 |
| 20260506174008 | 58 | 245 | 5.0 | 9.0 | 0.05 | 0.42 | 0.42 | 92 | 1007.6 |
| 20260506173508 | 58 | 257 | 5.0 | 9.0 | 0.04 | 0.41 | 0.41 | 92 | 1007.6 |
| 20260506173023 | 58 | 253 | 5.0 | 9.0 | 0.04 | 0.41 | 0.41 | 92 | 1007.6 |
| 20260506172508 | 58 | 248 | 4.0 | 9.0 | 0.04 | 0.41 | 0.41 | 92 | 1007.6 |
| 20260506172008 | 58 | 267 | 5.0 | 7.0 | 0.04 | 0.40 | 0.40 | 92 | 1007.7 |
| 20260506171510 | 58 | 253 | 4.0 | 8.0 | 0.05 | 0.40 | 0.40 | 91 | 1007.7 |
| 20260506171008 | 58 | 248 | 5.0 | 9.0 | 0.04 | 0.39 | 0.39 | 91 | 1007.8 |
| 20260506170506 | 58 | 253 | 4.0 | 9.0 | 0.03 | 0.38 | 0.38 | 91 | 1007.8 |
| 20260506170033 | 58 | 204 | 5.0 | 8.0 | 0.02 | 0.37 | 0.37 | 91 | 1007.9 |
| 20260506165505 | 58 | 252 | 5.0 | 9.0 | 0.02 | 0.37 | 0.37 | 91 | 1007.8 |
| 20260506165008 | 58 | 245 | 4.0 | 9.0 | 0.02 | 0.37 | 0.37 | 91 | 1007.8 |
| 20260506164524 | 58 | 229 | 5.0 | 8.0 | 0.02 | 0.37 | 0.37 | 91 | 1007.7 |
| 20260506164011 | 58 | 259 | 4.0 | 8.0 | 0.02 | 0.37 | 0.37 | 91 | 1007.7 |
| 20260506163506 | 58 | 241 | 5.0 | 8.0 | 0.03 | 0.37 | 0.37 | 91 | 1007.7 |
| 20260506163022 | 58 | 252 | 4.0 | 8.0 | 0.04 | 0.37 | 0.37 | 91 | 1007.8 |
| 20260506162507 | 58 | 254 | 5.0 | 8.0 | 0.04 | 0.37 | 0.37 | 91 | 1007.9 |
| 20260506162013 | 58 | 232 | 5.0 | 9.0 | 0.04 | 0.36 | 0.36 | 91 | 1007.9 |
| 20260506161526 | 58 | 254 | 5.0 | 9.0 | 0.04 | 0.35 | 0.35 | 91 | 1007.8 |
| 20260506161008 | 58 | 239 | 4.0 | 9.0 | 0.05 | 0.35 | 0.35 | 91 | 1007.8 |
| 20260506160504 | 58 | 253 | 2.0 | 7.0 | 0.07 | 0.35 | 0.35 | 91 | 1007.8 |
| 20260506160010 | 58 | 251 | 3.0 | 7.0 | 0.08 | 0.35 | 0.35 | 91 | 1007.8 |
| 20260506155504 | 58 | 244 | 2.0 | 7.0 | 0.09 | 0.35 | 0.35 | 91 | 1007.8 |
| 20260506155006 | 58 | 263 | 1.0 | 4.0 | 0.10 | 0.35 | 0.35 | 91 | 1007.8 |
| 20260506154515 | 58 | 262 | 3.0 | 4.0 | 0.11 | 0.35 | 0.35 | 91 | 1007.9 |
| 20260506154008 | 58 | 209 | 3.0 | 8.0 | 0.11 | 0.35 | 0.35 | 91 | 1007.8 |
| 20260506153506 | 58 | 238 | 2.0 | 9.0 | 0.11 | 0.34 | 0.34 | 91 | 1007.9 |
| 20260506153019 | 58 | 231 | 3.0 | 9.0 | 0.12 | 0.33 | 0.33 | 91 | 1007.9 |
| 20260506152506 | 58 | 264 | 4.0 | 7.0 | 0.12 | 0.33 | 0.33 | 91 | 1007.9 |
| 20260506152008 | 58 | 271 | 3.0 | 7.0 | 0.12 | 0.32 | 0.32 | 91 | 1007.9 |
| 20260506151524 | 58 | 262 | 3.0 | 8.0 | 0.12 | 0.31 | 0.31 | 90 | 1008.0 |
| 20260506151009 | 58 | 243 | 4.0 | 8.0 | 0.11 | 0.30 | 0.30 | 90 | 1008.1 |
| 20260506150509 | 58 | 246 | 4.0 | 11.0 | 0.10 | 0.28 | 0.28 | 90 | 1008.2 |
| 20260506150025 | 58 | 265 | 3.0 | 11.0 | 0.10 | 0.27 | 0.27 | 90 | 1008.2 |
| 20260506145506 | 58 | 259 | 4.0 | 11.0 | 0.10 | 0.26 | 0.26 | 90 | 1008.2 |
| 20260506145009 | 58 | 218 | 4.0 | 6.0 | 0.10 | 0.25 | 0.25 | 90 | 1008.1 |
| 20260506144511 | 58 | 248 | 3.0 | 9.0 | 0.09 | 0.24 | 0.24 | 90 | 1008.1 |
| 20260506144005 | 58 | 229 | 3.0 | 9.0 | 0.09 | 0.24 | 0.24 | 90 | 1007.9 |
| 20260506143505 | 58 | 260 | 4.0 | 10.0 | 0.09 | 0.23 | 0.23 | 90 | 1008.2 |
| 20260506143027 | 58 | 248 | 6.0 | 10.0 | 0.07 | 0.21 | 0.21 | 90 | 1008.2 |
| 20260506142506 | 58 | 257 | 3.0 | 9.0 | 0.08 | 0.21 | 0.21 | 90 | 1007.9 |
| 20260506142007 | 58 | 248 | 5.0 | 9.0 | 0.08 | 0.20 | 0.20 | 90 | 1008.0 |
| 20260506141528 | 58 | 258 | 4.0 | 13.0 | 0.08 | 0.19 | 0.19 | 89 | 1008.2 |
| 20260506141009 | 58 | 254 | 2.0 | 13.0 | 0.09 | 0.19 | 0.19 | 89 | 1008.1 |
| 20260506140507 | 58 | 261 | 4.0 | 11.0 | 0.09 | 0.18 | 0.18 | 89 | 1008.1 |
| 20260506140026 | 58 | 207 | 3.0 | 11.0 | 0.09 | 0.17 | 0.17 | 89 | 1008.1 |
| 20260506135514 | 58 | 230 | 5.0 | 11.0 | 0.09 | 0.16 | 0.16 | 89 | 1008.2 |
| 20260506135008 | 58 | 248 | 3.0 | 8.0 | 0.08 | 0.15 | 0.15 | 89 | 1008.3 |
| 20260506134528 | 58 | 270 | 2.0 | 7.0 | 0.10 | 0.15 | 0.15 | 88 | 1008.2 |
| 20260506134004 | 58 | 226 | 1.0 | 9.0 | 0.11 | 0.15 | 0.15 | 88 | 1008.2 |
| 20260506133505 | 58 | 269 | 4.0 | 9.0 | 0.11 | 0.14 | 0.14 | 88 | 1008.3 |
| 20260506133015 | 58 | 257 | 4.0 | 7.0 | 0.11 | 0.14 | 0.14 | 88 | 1008.5 |
| 20260506132511 | 58 | 241 | 3.0 | 7.0 | 0.11 | 0.13 | 0.13 | 88 | 1008.7 |
| 20260506132010 | 58 | 218 | 2.0 | 7.0 | 0.11 | 0.12 | 0.12 | 87 | 1008.7 |
| 20260506131520 | 58 | 244 | 2.0 | 7.0 | 0.11 | 0.11 | 0.11 | 86 | 1008.7 |
| 20260506131010 | 58 | 265 | 2.0 | 7.0 | 0.10 | 0.10 | 0.10 | 86 | 1008.7 |
| 20260506130506 | 58 | 234 | 4.0 | 8.0 | 0.09 | 0.09 | 0.09 | 86 | 1008.8 |
| 20260506130025 | 58 | 235 | 3.0 | 8.0 | 0.08 | 0.08 | 0.08 | 85 | 1008.8 |
| 20260506125510 | 58 | 255 | 4.0 | 7.0 | 0.07 | 0.07 | 0.07 | 84 | 1008.9 |
| 20260506125010 | 59 | 243 | 4.0 | 7.0 | 0.07 | 0.07 | 0.07 | 84 | 1008.9 |
| 20260506124525 | 59 | 224 | 4.0 | 8.0 | 0.05 | 0.05 | 0.05 | 83 | 1009.0 |
| 20260506124010 | 59 | 257 | 5.0 | 8.0 | 0.04 | 0.04 | 0.04 | 82 | 1008.9 |
| 20260506123510 | 60 | 273 | 3.0 | 9.0 | 0.03 | 0.03 | 0.03 | 81 | 1008.9 |
| 20260506123010 | 60 | 253 | 4.0 | 9.0 | 0.03 | 0.03 | 0.03 | 80 | 1008.9 |
| 20260506122506 | 60 | 261 | 4.0 | 7.0 | 0.02 | 0.02 | 0.02 | 78 | 1008.8 |
| 20260506122011 | 60 | 240 | 5.0 | 7.0 | 0.01 | 0.01 | 0.01 | 77 | 1008.8 |
| 20260506121523 | 61 | 250 | 2.0 | 9.0 | 0.00 | 0.00 | 0.00 | 76 | 1008.7 |
| 20260506121007 | 61 | 262 | 4.0 | 9.0 | 0.00 | 0.00 | 0.00 | 76 | 1008.7 |
| 20260506120507 | 61 | 254 | 4.0 | 9.0 | 0.00 | 0.00 | 0.00 | 75 | 1008.6 |
| 20260506120033 | 61 | 236 | 4.0 | 9.0 | 0.00 | 0.00 | 0.00 | 74 | 1008.7 |
| 20260506115511 | 61 | 244 | 3.0 | 8.0 | 0.00 | 0.00 | 0.00 | 73 | 1008.6 |
| 20260506115009 | 62 | 225 | 3.0 | 8.0 | 0.00 | 0.00 | 0.00 | 73 | 1008.5 |
| 20260506114526 | 62 | 256 | 4.0 | 8.0 | 0.00 | 0.00 | 0.00 | 72 | 1008.5 |
| 20260506114012 | 62 | 201 | 2.0 | 8.0 | 0.00 | 0.00 | 0.00 | 71 | 1008.5 |
| 20260506113509 | 62 | 232 | 4.0 | 8.0 | 0.00 | 0.00 | 0.00 | 70 | 1008.4 |
| 20260506113030 | 62 | 252 | 3.0 | 8.0 | 0.00 | 0.00 | 0.00 | 70 | 1008.3 |
| 20260506112510 | 62 | 250 | 1.0 | 9.0 | 0.00 | 0.00 | 0.00 | 70 | 1008.3 |
| 20260506112015 | 62 | 230 | 5.0 | 10.0 | 0.00 | 0.00 | 0.00 | 68 | 1008.3 |
| 20260506111516 | 63 | 227 | 3.0 | 10.0 | 0.00 | 0.00 | 0.00 | 67 | 1008.3 |
| 20260506111010 | 63 | 254 | 3.0 | 7.0 | 0.00 | 0.00 | 0.00 | 67 | 1008.3 |
| 20260506110504 | 63 | 238 | 3.0 | 9.0 | 0.00 | 0.00 | 0.00 | 66 | 1008.2 |
| 20260506110020 | 63 | 259 | 4.0 | 9.0 | 0.00 | 0.00 | 0.00 | 66 | 1008.1 |
| 20260506105505 | 63 | 246 | 2.0 | 8.0 | 0.00 | 0.00 | 0.00 | 66 | 1008.1 |
| 20260506105008 | 63 | 221 | 3.0 | 8.0 | 0.00 | 0.00 | 0.00 | 65 | 1008.1 |
| 20260506104523 | 63 | 263 | 4.0 | 8.0 | 0.00 | 0.00 | 0.00 | 65 | 1008.0 |
| 20260506104009 | 63 | 259 | 4.0 | 7.0 | 0.00 | 0.00 | 0.00 | 65 | 1008.0 |
| 20260506103511 | 63 | 243 | 3.0 | 8.0 | 0.00 | 0.00 | 0.00 | 64 | 1007.9 |
| 20260506103026 | 63 | 246 | 3.0 | 8.0 | 0.00 | 0.00 | 0.00 | 64 | 1007.7 |
| 20260506102509 | 63 | 225 | 3.0 | 9.0 | 0.00 | 0.00 | 0.00 | 63 | 1007.7 |
| 20260506102010 | 63 | 265 | 2.0 | 9.0 | 0.00 | 0.00 | 0.00 | 63 | 1007.7 |
| 20260506101528 | 64 | 249 | 3.0 | 6.0 | 0.00 | 0.00 | 0.00 | 62 | 1007.6 |
| 20260506101010 | 64 | 242 | 3.0 | 8.0 | 0.00 | 0.00 | 0.00 | 62 | 1007.6 |
| 20260506100508 | 64 | 252 | 2.0 | 8.0 | 0.00 | 0.00 | 0.00 | 61 | 1007.7 |
| 20260506100018 | 64 | 257 | 3.0 | 8.0 | 0.00 | 0.00 | 0.00 | 61 | 1007.6 |
| 20260506095507 | 64 | 232 | 4.0 | 8.0 | 0.00 | 0.00 | 0.00 | 60 | 1007.6 |
| 20260506095005 | 64 | 238 | 3.0 | 8.0 | 0.00 | 0.00 | 0.00 | 60 | 1007.7 |
| 20260506094524 | 64 | 266 | 2.0 | 8.0 | 0.00 | 0.00 | 0.00 | 60 | 1007.8 |
| 20260506094011 | 64 | 263 | 4.0 | 8.0 | 0.00 | 0.00 | 0.00 | 59 | 1007.8 |
| 20260506093511 | 64 | 229 | 2.0 | 6.0 | 0.00 | 0.00 | 0.00 | 59 | 1007.8 |
| 20260506093024 | 64 | 223 | 2.0 | 7.0 | 0.00 | 0.00 | 0.00 | 59 | 1007.9 |
| 20260506092507 | 64 | 227 | 3.0 | 8.0 | 0.00 | 0.00 | 0.00 | 58 | 1008.0 |
| 20260506092011 | 64 | 246 | 4.0 | 8.0 | 0.00 | 0.00 | 0.00 | 58 | 1008.0 |
| 20260506091531 | 64 | 244 | 3.0 | 8.0 | 0.00 | 0.00 | 0.00 | 58 | 1007.9 |
| 20260506091009 | 64 | 232 | 4.0 | 8.0 | 0.00 | 0.00 | 0.00 | 58 | 1008.1 |
| 20260506090509 | 64 | 226 | 3.0 | 8.0 | 0.00 | 0.00 | 0.00 | 57 | 1008.0 |
| 20260506090041 | 64 | 221 | 4.0 | 8.0 | 0.00 | 0.00 | 0.00 | 57 | 1008.1 |
| 20260506085512 | 64 | 234 | 5.0 | 9.0 | 0.00 | 0.00 | 0.00 | 57 | 1008.0 |
| 20260506085008 | 64 | 226 | 5.0 | 9.0 | 0.00 | 0.00 | 0.00 | 56 | 1007.9 |
| 20260506084523 | 65 | 225 | 5.0 | 8.0 | 0.00 | 0.00 | 0.00 | 56 | 1008.1 |
| 20260506084009 | 65 | 227 | 4.0 | 9.0 | 0.00 | 0.00 | 0.00 | 55 | 1008.1 |
| 20260506083509 | 65 | 228 | 5.0 | 11.0 | 0.00 | 0.00 | 0.00 | 55 | 1008.0 |
| 20260506083028 | 65 | 228 | 5.0 | 10.0 | 0.00 | 0.00 | 0.00 | 55 | 1008.1 |
| 20260506082502 | 65 | 236 | 7.0 | 9.0 | 0.00 | 0.00 | 0.00 | 54 | 1008.0 |
| 20260506082001 | 65 | 259 | 5.0 | 9.0 | 0.00 | 0.00 | 0.00 | 54 | 1008.1 |
| 20260506081510 | 65 | 255 | 4.0 | 9.0 | 0.00 | 0.00 | 0.00 | 54 | 1008.1 |
| 20260506081005 | 65 | 242 | 5.0 | 9.0 | 0.00 | 0.00 | 0.00 | 53 | 1008.1 |
| 20260506080503 | 65 | 254 | 6.0 | 10.0 | 0.00 | 0.00 | 0.00 | 53 | 1008.0 |
| 20260506073508 | 65 | 233 | 6.0 | 10.0 | 0.00 | 0.00 | 0.00 | 51 | 1008.1 |
| 20260506073022 | 65 | 239 | 6.0 | 9.0 | 0.00 | 0.00 | 0.00 | 51 | 1008.0 |
| 20260506072513 | 65 | 238 | 4.0 | 9.0 | 0.00 | 0.00 | 0.00 | 50 | 1008.0 |
| 20260506072001 | 65 | 227 | 5.0 | 9.0 | 0.00 | 0.00 | 0.00 | 50 | 1008.2 |
| 20260506071507 | 66 | 232 | 4.0 | 11.0 | 0.00 | 0.00 | 0.00 | 50 | 1008.2 |
| 20260506071001 | 66 | 246 | 4.0 | 11.0 | 0.00 | 0.00 | 0.00 | 50 | 1008.3 |
| 20260506070502 | 66 | 263 | 6.0 | 11.0 | 0.00 | 0.00 | 0.00 | 49 | 1008.3 |
| 20260506062508 | 66 | 246 | 5.0 | 10.0 | 0.00 | 0.00 | 0.00 | 47 | 1008.9 |
| 20260506062010 | 66 | 232 | 5.0 | 10.0 | 0.00 | 0.00 | 0.00 | 48 | 1009.0 |
| 20260506061543 | 66 | 245 | 4.0 | 9.0 | 0.00 | 0.00 | 0.00 | 47 | 1009.1 |
| 20260506061001 | 66 | 251 | 5.0 | 9.0 | 0.00 | 0.00 | 0.00 | 47 | 1009.1 |
| 20260506060504 | 66 | 267 | 5.0 | 9.0 | 0.00 | 0.00 | 0.00 | 46 | 1009.1 |
| 20260506051009 | 66 | 257 | 6.0 | 8.0 | 0.00 | 0.00 | 0.00 | 45 | 1009.6 |
| 20260506050511 | 66 | 229 | 5.0 | 8.0 | 0.00 | 0.00 | 0.00 | 45 | 1009.6 |
| 20260506045002 | 67 | 248 | 5.0 | 9.0 | 0.00 | 0.00 | 0.00 | 45 | 1009.6 |
| 20260506044520 | 67 | 234 | 4.0 | 7.0 | 0.00 | 0.00 | 0.00 | 45 | 1009.6 |
| 20260506044007 | 67 | 261 | 3.0 | 9.0 | 0.00 | 0.00 | 0.00 | 45 | 1009.5 |
| 20260506043503 | 67 | 241 | 5.0 | 9.0 | 0.00 | 0.00 | 0.00 | 45 | 1009.5 |
| 20260506043034 | 67 | 249 | 4.0 | 8.0 | 0.00 | 0.00 | 0.00 | 45 | 1009.5 |
| 20260506042507 | 67 | 245 | 4.0 | 8.0 | 0.00 | 0.00 | 0.00 | 45 | 1009.6 |
| 20260506042008 | 67 | 250 | 4.0 | 8.0 | 0.00 | 0.00 | 0.00 | 44 | 1009.6 |
| 20260506041526 | 67 | 246 | 4.0 | 6.0 | 0.00 | 0.00 | 0.00 | 44 | 1009.6 |
| 20260506041007 | 67 | 247 | 4.0 | 8.0 | 0.00 | 0.00 | 0.00 | 44 | 1009.7 |
| 20260506040512 | 67 | 255 | 3.0 | 8.0 | 0.00 | 0.00 | 0.00 | 44 | 1009.7 |
| 20260506040025 | 67 | 254 | 5.0 | 7.0 | 0.00 | 0.00 | 0.00 | 44 | 1009.6 |
| 20260506035506 | 68 | 236 | 4.0 | 8.0 | 0.00 | 0.00 | 0.00 | 44 | 1009.7 |
| 20260506035016 | 68 | 248 | 4.0 | 8.0 | 0.00 | 0.00 | 0.00 | 44 | 1009.7 |
| 20260506034512 | 68 | 249 | 4.0 | 8.0 | 0.00 | 0.00 | 0.00 | 44 | 1009.8 |
| 20260506034001 | 68 | 250 | 5.0 | 8.0 | 0.00 | 0.00 | 0.00 | 43 | 1009.8 |
| 20260506033505 | 68 | 254 | 3.0 | 7.0 | 0.00 | 0.00 | 0.00 | 43 | 1009.7 |
| 20260506033018 | 68 | 257 | 3.0 | 7.0 | 0.00 | 0.00 | 0.00 | 43 | 1009.7 |
| 20260506032503 | 68 | 261 | 4.0 | 7.0 | 0.00 | 0.00 | 0.00 | 44 | 1009.7 |
| 20260506032008 | 68 | 235 | 4.0 | 7.0 | 0.00 | 0.00 | 0.00 | 43 | 1009.7 |
| 20260506031524 | 68 | 234 | 3.0 | 7.0 | 0.00 | 0.00 | 0.00 | 44 | 1009.6 |
| 20260506031011 | 68 | 242 | 3.0 | 7.0 | 0.00 | 0.00 | 0.00 | 43 | 1009.6 |
| 20260506030507 | 68 | 227 | 3.0 | 7.0 | 0.00 | 0.00 | 0.00 | 44 | 1009.6 |
| 20260506030027 | 68 | 240 | 3.0 | 6.0 | 0.00 | 0.00 | 0.00 | 44 | 1009.7 |
| 20260506025509 | 67 | 254 | 2.0 | 6.0 | 0.00 | 0.00 | 0.00 | 44 | 1009.7 |
| 20260506025011 | 67 | 285 | 3.0 | 6.0 | 0.00 | 0.00 | 0.00 | 44 | 1009.7 |
| 20260506024540 | 67 | 254 | 1.0 | 3.0 | 0.00 | 0.00 | 0.00 | 44 | 1009.7 |
| 20260506024014 | 67 | 260 | 1.0 | 3.0 | 0.00 | 0.00 | 0.00 | 45 | 1009.7 |
| 20260506023513 | 67 | 297 | 1.0 | 3.0 | 0.00 | 0.00 | 0.00 | 45 | 1009.7 |
| 20260506023015 | 67 | 257 | 1.0 | 3.0 | 0.00 | 0.00 | 0.00 | 44 | 1009.7 |
| 20260506022508 | 67 | 293 | 0.0 | 1.0 | 0.00 | 0.00 | 0.00 | 44 | 1009.7 |
| 20260506022004 | 68 | 279 | 0.0 | 1.0 | 0.00 | 0.00 | 0.00 | 44 | 1009.8 |
| 20260506021521 | 68 | 277 | 0.0 | 2.0 | 0.00 | 0.00 | 0.00 | 43 | 1009.7 |